Regional Weather Roundup
Issued by NWS Albany, NY

Home | Current Version | Previous Version | Text Only | Print | Product List | Glossary On
Versions: 1 2 3 4 5 6 7 8 9 10 11 12 13 14 15 16 17 18 19 20 21 22 23 24 25 26 27 28 29 30 31 32 33 34 35 36 37 38 39 40 41 42 43 44 45 46 47 48 49 50
001
ASUS41 KALY 290010
RWRALY

NEW YORK STATE HOURLY WEATHER ROUNDUP
NATIONAL WEATHER SERVICE ALBANY NY
800 PM EDT WED SEP 28 2016

NOTE: "FAIR" INDICATES FEW OR NO CLOUDS BELOW 12,000 FEET WITH NO
SIGNIFICANT WEATHER AND/OR NO OBSTRUCTIONS TO VISIBILITY.

NYZ032-033-038>043-046>054-057>066-NYZ062>081-082-084-290100-
EAST


CITY           SKY/WX    TMP DP  RH WIND       PRES   REMARKS
ALBANY         MOCLDY    60  47  61 E7        30.28R
GLENS FALLS    CLEAR     58  47  66 E5        30.29R
POUGHKEEPSIE   CLOUDY    58  50  75 E9        30.24R
NEWBURGH       CLOUDY    59  54  82 E17G23    30.25R
MONTGOMERY     CLOUDY    60  51  72 E10       30.22R
WHITE PLAINS   MOCLDY    58  52  80 NE12G18   30.22R
ISLIP          CLOUDY    59  54  83 NE14G22   30.21R
NEW YORK CITY  DRIZZLE   63  58  83 NE21G30   30.20R
CENTRAL PARK   CLOUDY    60  55  83 VRB7      30.23R HAZE
$$

NYZ005>009-017-018-044>046-055-056-290100-
CENTRAL


CITY           SKY/WX    TMP DP  RH WIND       PRES   REMARKS
FULTON         CLEAR     63  51  65 VRB3      30.18R
SYRACUSE       PTCLDY    60  51  72 E9        30.17R
ROME           CLEAR     59  52  77 E8        30.22R
ELMIRA         MOCLDY    63  49  60 E7        30.14R
BINGHAMTON     MOCLDY    57  49  74 SE10      30.17R
MONTICELLO     CLOUDY    55  50  82 E14       30.22S
$$

NYZ026>034-041>043-087-290100-
NORTH


CITY           SKY/WX    TMP DP  RH WIND       PRES   REMARKS
WATERTOWN      CLEAR     58  51  78 E5        30.20R
FORT DRUM      NOT AVBL
OGDENSBURG     FAIR      62  56  79 E13       30.24R
MASSENA        CLEAR     61  53  75 NE10      30.28R
SARANAC LAKE   CLEAR     53  46  77 NE3       30.27R
PLATTSBURGH    CLEAR     58  54  86 CALM      30.27R
$$

NYZ001>004-010>016-019>021-085-290100-
WEST


CITY           SKY/WX    TMP DP  RH WIND       PRES   REMARKS
NIAGARA FALLS  MOCLDY    66  54  65 E12       30.07R
BUFFALO        MOCLDY    67  47  48 NE10      30.08R
DUNKIRK        MOCLDY    64  51  62 E9        30.04R
JAMESTOWN      CLEAR     63  45  51 SE9       30.06R
WELLSVILLE     CLOUDY    62  48  60 SE10G20   30.14R
ROCHESTER      MOCLDY    66  53  63 E13       30.14R
PENN YAN       MOCLDY    64  49  57 VRB3      30.16R
$$

             KEY
       WCI = WIND CHILL INDEX
       VSB = VISIBILITY
       HX  = HEAT INDEX
$$




USA.gov is the U.S. government's official web portal to all federal, state and local government web resources and services.